contact:dominique.lefevre@mio.osupytheas.fr, maurice.libes@osupytheas.fr, didier.mallarino@osupytheas.fr
Project:EMSO http://www.emso-fr.org/EMSO-France
Depth: 2436.0 m
Title:EMSO Ligure Ouest : Data MII capteur CSTAR
DateTime,Latitude,Longitude,Instrument_Serial,Reference_Counts,Signal_Counts,Corrected_Signal_raw_counts,Calculated_Beam_c_inverse_meters,Internal_thermistor_counts
DateTime,Latitude,Longitude,Instrument_Serial,Reference_Counts,Signal_Counts,Corrected_Signal_raw_counts,Calculated_Beam_c_inverse_meters,Internal_thermistor_counts
2020-06-04T00:01:58,42.805,6.029,CST-1368DR,6239,8739,15147,0.122,551
2020-06-04T00:04:59,42.805,6.029,CST-1368DR,6239,8741,15150,0.121,551
2020-06-04T00:08:01,42.805,6.029,CST-1368DR,6239,8740,15149,0.121,551
2020-06-04T00:11:03,42.805,6.029,CST-1368DR,6239,8740,15148,0.122,551
2020-06-04T00:14:04,42.805,6.029,CST-1368DR,6239,8740,15148,0.122,551
2020-06-04T00:17:06,42.805,6.029,CST-1368DR,6239,8740,15148,0.122,551
2020-06-04T00:20:08,42.805,6.029,CST-1368DR,6238,8740,15150,0.121,551
2020-06-04T00:23:09,42.805,6.029,CST-1368DR,6239,8740,15148,0.122,551
2020-06-04T00:26:11,42.805,6.029,CST-1368DR,6239,8740,15148,0.122,551
2020-06-04T00:29:13,42.805,6.029,CST-1368DR,6239,8740,15147,0.122,551
2020-06-04T00:32:15,42.805,6.029,CST-1368DR,6239,8741,15150,0.121,551
2020-06-04T00:35:17,42.805,6.029,CST-1368DR,6238,8740,15151,0.121,550
2020-06-04T00:38:18,42.805,6.029,CST-1368DR,6238,8740,15151,0.121,551
2020-06-04T00:41:20,42.805,6.029,CST-1368DR,6238,8740,15150,0.121,551
2020-06-04T00:44:22,42.805,6.029,CST-1368DR,6238,8741,15152,0.121,551
2020-06-04T00:47:24,42.805,6.029,CST-1368DR,6238,8740,15151,0.121,551
2020-06-04T00:50:25,42.805,6.029,CST-1368DR,6238,8741,15152,0.121,551
2020-06-04T00:53:27,42.805,6.029,CST-1368DR,6238,8740,15151,0.121,551
2020-06-04T00:56:29,42.805,6.029,CST-1368DR,6238,8741,15152,0.121,551
2020-06-04T00:59:30,42.805,6.029,CST-1368DR,6238,8741,15153,0.120,550
2020-06-04T01:02:32,42.805,6.029,CST-1368DR,6238,8742,15154,0.120,551
2020-06-04T01:05:34,42.805,6.029,CST-1368DR,6238,8741,15152,0.121,551
2020-06-04T01:08:36,42.805,6.029,CST-1368DR,6238,8741,15153,0.120,551
2020-06-04T01:11:37,42.805,6.029,CST-1368DR,6238,8741,15153,0.120,551
2020-06-04T01:14:39,42.805,6.029,CST-1368DR,6238,8742,15153,0.120,550
2020-06-04T01:17:41,42.805,6.029,CST-1368DR,6238,8742,15153,0.120,551
2020-06-04T01:20:43,42.805,6.029,CST-1368DR,6238,8742,15155,0.120,551
2020-06-04T01:23:44,42.805,6.029,CST-1368DR,6238,8739,15148,0.122,551
2020-06-04T01:26:46,42.805,6.029,CST-1368DR,6238,8741,15152,0.121,551
2020-06-04T01:29:48,42.805,6.029,CST-1368DR,6238,8741,15152,0.121,551
2020-06-04T01:32:49,42.805,6.029,CST-1368DR,6238,8742,15154,0.120,551
2020-06-04T01:35:51,42.805,6.029,CST-1368DR,6238,8742,15153,0.120,551
2020-06-04T01:38:53,42.805,6.029,CST-1368DR,6238,8740,15150,0.121,551
2020-06-04T01:41:54,42.805,6.029,CST-1368DR,6238,8742,15154,0.120,551
2020-06-04T01:44:56,42.805,6.029,CST-1368DR,6238,8742,15153,0.120,551
2020-06-04T01:47:58,42.805,6.029,CST-1368DR,6238,8740,15151,0.121,551
2020-06-04T01:50:59,42.805,6.029,CST-1368DR,6238,8740,15151,0.121,551
2020-06-04T01:54:01,42.805,6.029,CST-1368DR,6238,8740,15151,0.121,551
2020-06-04T01:57:03,42.805,6.029,CST-1368DR,6238,8741,15152,0.121,551
2020-06-04T02:00:05,42.805,6.029,CST-1368DR,6238,8742,15154,0.120,551
2020-06-04T02:03:06,42.805,6.029,CST-1368DR,6238,8742,15154,0.120,551
2020-06-04T02:06:08,42.805,6.029,CST-1368DR,6238,8742,15154,0.120,551
2020-06-04T02:09:10,42.805,6.029,CST-1368DR,6238,8740,15151,0.121,551
2020-06-04T02:12:12,42.805,6.029,CST-1368DR,6238,8740,15150,0.121,551
2020-06-04T02:15:13,42.805,6.029,CST-1368DR,6238,8740,15151,0.121,551
2020-06-04T02:18:15,42.805,6.029,CST-1368DR,6238,8741,15152,0.121,551
2020-06-04T02:21:17,42.805,6.029,CST-1368DR,6238,8741,15153,0.120,551
2020-06-04T02:24:18,42.805,6.029,CST-1368DR,6238,8741,15152,0.121,551
2020-06-04T02:27:20,42.805,6.029,CST-1368DR,6238,8741,15153,0.120,551
2020-06-04T02:30:22,42.805,6.029,CST-1368DR,6238,8741,15152,0.121,551
2020-06-04T02:33:23,42.805,6.029,CST-1368DR,6238,8741,15152,0.121,551
2020-06-04T02:36:25,42.805,6.029,CST-1368DR,6238,8741,15152,0.121,551
2020-06-04T02:39:27,42.805,6.029,CST-1368DR,6238,8740,15151,0.121,551
2020-06-04T02:42:28,42.805,6.029,CST-1368DR,6238,8740,15150,0.121,551
2020-06-04T02:45:30,42.805,6.029,CST-1368DR,6238,8740,15151,0.121,551
2020-06-04T02:48:32,42.805,6.029,CST-1368DR,6238,8740,15151,0.121,551
2020-06-04T02:51:34,42.805,6.029,CST-1368DR,6238,8741,15152,0.121,551
2020-06-04T02:54:35,42.805,6.029,CST-1368DR,6238,8740,15151,0.121,551
2020-06-04T02:57:37,42.805,6.029,CST-1368DR,6238,8740,15150,0.121,551
2020-06-04T03:00:39,42.805,6.029,CST-1368DR,6238,8741,15152,0.121,551
2020-06-04T03:03:40,42.805,6.029,CST-1368DR,6238,8740,15151,0.121,551
2020-06-04T03:06:42,42.805,6.029,CST-1368DR,6238,8741,15152,0.121,551
2020-06-04T03:09:44,42.805,6.029,CST-1368DR,6238,8739,15149,0.121,551
2020-06-04T03:12:45,42.805,6.029,CST-1368DR,6238,8740,15151,0.121,551
2020-06-04T03:15:47,42.805,6.029,CST-1368DR,6238,8740,15150,0.121,551
2020-06-04T03:18:49,42.805,6.029,CST-1368DR,6238,8740,15151,0.121,551
2020-06-04T03:21:50,42.805,6.029,CST-1368DR,6238,8741,15152,0.121,551
2020-06-04T03:24:52,42.805,6.029,CST-1368DR,6238,8740,15151,0.121,551
2020-06-04T03:27:54,42.805,6.029,CST-1368DR,6238,8741,15152,0.121,551
2020-06-04T03:30:55,42.805,6.029,CST-1368DR,6238,8741,15152,0.121,551
2020-06-04T03:33:57,42.805,6.029,CST-1368DR,6238,8741,15152,0.121,551
2020-06-04T03:36:59,42.805,6.029,CST-1368DR,6238,8740,15151,0.121,551
2020-06-04T03:40:01,42.805,6.029,CST-1368DR,6238,8741,15152,0.121,551
2020-06-04T03:43:02,42.805,6.029,CST-1368DR,6238,8740,15151,0.121,551
2020-06-04T03:46:04,42.805,6.029,CST-1368DR,6238,8740,15150,0.121,551
2020-06-04T03:49:06,42.805,6.029,CST-1368DR,6238,8740,15150,0.121,551
2020-06-04T03:52:07,42.805,6.029,CST-1368DR,6238,8740,15150,0.121,551
2020-06-04T03:55:09,42.805,6.029,CST-1368DR,6238,8739,15149,0.121,551
2020-06-04T03:58:11,42.805,6.029,CST-1368DR,6238,8741,15152,0.121,551
2020-06-04T04:01:12,42.805,6.029,CST-1368DR,6238,8741,15152,0.121,551
2020-06-04T04:04:14,42.805,6.029,CST-1368DR,6238,8740,15151,0.121,551
2020-06-04T04:07:16,42.805,6.029,CST-1368DR,6238,8739,15149,0.121,551
2020-06-04T04:10:18,42.805,6.029,CST-1368DR,6238,8739,15149,0.121,551
2020-06-04T04:13:19,42.805,6.029,CST-1368DR,6238,8740,15150,0.121,551
2020-06-04T04:16:21,42.805,6.029,CST-1368DR,6238,8739,15148,0.122,551
2020-06-04T04:19:23,42.805,6.029,CST-1368DR,6238,8738,15147,0.122,551
2020-06-04T04:22:25,42.805,6.029,CST-1368DR,6238,8740,15151,0.121,551
2020-06-04T04:25:26,42.805,6.029,CST-1368DR,6238,8740,15150,0.121,551
2020-06-04T04:28:28,42.805,6.029,CST-1368DR,6238,8741,15153,0.120,551
2020-06-04T04:31:30,42.805,6.029,CST-1368DR,6238,8740,15150,0.121,551
2020-06-04T04:34:31,42.805,6.029,CST-1368DR,6238,8741,15152,0.121,551
2020-06-04T04:37:33,42.805,6.029,CST-1368DR,6238,8740,15151,0.121,551
2020-06-04T04:40:35,42.805,6.029,CST-1368DR,6238,8739,15149,0.121,551
2020-06-04T04:43:36,42.805,6.029,CST-1368DR,6238,8740,15151,0.121,551
2020-06-04T04:46:38,42.805,6.029,CST-1368DR,6238,8738,15147,0.122,551
2020-06-04T04:49:40,42.805,6.029,CST-1368DR,6238,8739,15148,0.122,551
2020-06-04T04:52:42,42.805,6.029,CST-1368DR,6238,8740,15150,0.121,551
2020-06-04T04:55:43,42.805,6.029,CST-1368DR,6238,8740,15151,0.121,551
2020-06-04T04:58:45,42.805,6.029,CST-1368DR,6238,8740,15150,0.121,551
2020-06-04T05:01:47,42.805,6.029,CST-1368DR,6238,8740,15151,0.121,551
2020-06-04T05:04:49,42.805,6.029,CST-1368DR,6238,8740,15150,0.121,551
2020-06-04T05:07:50,42.805,6.029,CST-1368DR,6238,8740,15150,0.121,551
2020-06-04T05:10:52,42.805,6.029,CST-1368DR,6238,8740,15151,0.121,551
2020-06-04T05:13:54,42.805,6.029,CST-1368DR,6238,8742,15153,0.120,551
2020-06-04T05:16:55,42.805,6.029,CST-1368DR,6238,8739,15149,0.121,551
2020-06-04T05:19:57,42.805,6.029,CST-1368DR,6238,8739,15148,0.122,551
2020-06-04T05:22:59,42.805,6.029,CST-1368DR,6238,8740,15151,0.121,551
2020-06-04T05:26:00,42.805,6.029,CST-1368DR,6238,8739,15149,0.121,551
2020-06-04T05:29:02,42.805,6.029,CST-1368DR,6238,8741,15152,0.121,551
2020-06-04T05:32:04,42.805,6.029,CST-1368DR,6238,8739,15149,0.121,551
2020-06-04T05:35:05,42.805,6.029,CST-1368DR,6238,8740,15150,0.121,551
2020-06-04T05:38:08,42.805,6.029,CST-1368DR,6237,8740,15152,0.121,551
2020-06-04T05:41:09,42.805,6.029,CST-1368DR,6238,8740,15150,0.121,551
2020-06-04T05:44:11,42.805,6.029,CST-1368DR,6237,8740,15152,0.121,551
2020-06-04T05:47:13,42.805,6.029,CST-1368DR,6238,8740,15151,0.121,551
2020-06-04T05:50:15,42.805,6.029,CST-1368DR,6237,8740,15153,0.120,551
2020-06-04T05:53:16,42.805,6.029,CST-1368DR,6237,8740,15153,0.120,551
2020-06-04T05:56:18,42.805,6.029,CST-1368DR,6237,8740,15152,0.121,550
2020-06-04T05:59:20,42.805,6.029,CST-1368DR,6237,8740,15152,0.121,551
2020-06-04T06:02:21,42.805,6.029,CST-1368DR,6237,8739,15152,0.121,551
2020-06-04T06:05:23,42.805,6.029,CST-1368DR,6237,8739,15152,0.121,551
2020-06-04T06:08:25,42.805,6.029,CST-1368DR,6237,8740,15152,0.121,551
2020-06-04T06:11:26,42.805,6.029,CST-1368DR,6237,8741,15155,0.120,551
2020-06-04T06:14:28,42.805,6.029,CST-1368DR,6237,8739,15152,0.121,551
2020-06-04T06:17:30,42.805,6.029,CST-1368DR,6237,8740,15152,0.121,551
2020-06-04T06:20:32,42.805,6.029,CST-1368DR,6237,8739,15152,0.121,551
2020-06-04T06:23:33,42.805,6.029,CST-1368DR,6237,8739,15152,0.121,551
2020-06-04T06:26:35,42.805,6.029,CST-1368DR,6237,8740,15153,0.120,551
2020-06-04T06:29:37,42.805,6.029,CST-1368DR,6237,8740,15153,0.120,551
2020-06-04T06:32:38,42.805,6.029,CST-1368DR,6237,8740,15152,0.121,551
2020-06-04T06:35:40,42.805,6.029,CST-1368DR,6237,8739,15150,0.121,551
2020-06-04T06:38:42,42.805,6.029,CST-1368DR,6237,8739,15150,0.121,551
2020-06-04T06:41:44,42.805,6.029,CST-1368DR,6237,8740,15152,0.121,551
2020-06-04T06:44:45,42.805,6.029,CST-1368DR,6237,8738,15150,0.121,551
2020-06-04T06:47:47,42.805,6.029,CST-1368DR,6237,8740,15152,0.121,551
2020-06-04T06:50:49,42.805,6.029,CST-1368DR,6237,8739,15150,0.121,551
2020-06-04T06:53:50,42.805,6.029,CST-1368DR,6237,8740,15152,0.121,551
2020-06-04T06:56:52,42.805,6.029,CST-1368DR,6237,8740,15153,0.120,551
2020-06-04T06:59:54,42.805,6.029,CST-1368DR,6237,8740,15152,0.121,551
2020-06-04T07:02:55,42.805,6.029,CST-1368DR,6237,8740,15152,0.121,551
2020-06-04T07:05:57,42.805,6.029,CST-1368DR,6237,8740,15153,0.120,551
2020-06-04T07:08:59,42.805,6.029,CST-1368DR,6237,8738,15150,0.121,551
2020-06-04T07:12:00,42.805,6.029,CST-1368DR,6237,8740,15153,0.120,551
2020-06-04T07:15:02,42.805,6.029,CST-1368DR,6237,8740,15152,0.121,551
2020-06-04T07:18:04,42.805,6.029,CST-1368DR,6237,8739,15151,0.121,551
2020-06-04T07:21:05,42.805,6.029,CST-1368DR,6237,8739,15152,0.121,551
2020-06-04T07:24:07,42.805,6.029,CST-1368DR,6237,8740,15153,0.120,551
2020-06-04T07:27:09,42.805,6.029,CST-1368DR,6237,8739,15151,0.121,551
2020-06-04T07:30:10,42.805,6.029,CST-1368DR,6237,8740,15153,0.120,550
2020-06-04T07:33:12,42.805,6.029,CST-1368DR,6237,8738,15150,0.121,551
2020-06-04T07:36:14,42.805,6.029,CST-1368DR,6237,8739,15151,0.121,551
2020-06-04T07:39:16,42.805,6.029,CST-1368DR,6237,8739,15152,0.121,551
2020-06-04T07:42:18,42.805,6.029,CST-1368DR,6237,8740,15153,0.120,551
2020-06-04T07:45:19,42.805,6.029,CST-1368DR,6237,8739,15151,0.121,551
2020-06-04T07:48:21,42.805,6.029,CST-1368DR,6237,8740,15152,0.121,550
2020-06-04T07:51:23,42.805,6.029,CST-1368DR,6237,8739,15152,0.121,551
2020-06-04T07:54:24,42.805,6.029,CST-1368DR,6237,8740,15153,0.120,551
2020-06-04T07:57:26,42.805,6.029,CST-1368DR,6237,8740,15152,0.121,551
2020-06-04T08:00:28,42.805,6.029,CST-1368DR,6237,8739,15152,0.121,551
2020-06-04T08:03:29,42.805,6.029,CST-1368DR,6237,8739,15152,0.121,551
2020-06-04T08:06:31,42.805,6.029,CST-1368DR,6237,8740,15152,0.121,551
2020-06-04T08:09:33,42.805,6.029,CST-1368DR,6237,8740,15153,0.120,551
2020-06-04T08:12:34,42.805,6.029,CST-1368DR,6237,8739,15150,0.121,551
2020-06-04T08:15:36,42.805,6.029,CST-1368DR,6237,8741,15154,0.120,550
2020-06-04T08:18:38,42.805,6.029,CST-1368DR,6237,8740,15152,0.121,551
2020-06-04T08:21:39,42.805,6.029,CST-1368DR,6237,8740,15152,0.121,551
2020-06-04T08:24:41,42.805,6.029,CST-1368DR,6237,8739,15150,0.121,551
2020-06-04T08:27:43,42.805,6.029,CST-1368DR,6237,8739,15152,0.121,550
2020-06-04T08:30:45,42.805,6.029,CST-1368DR,6237,8740,15152,0.121,551
2020-06-04T08:33:46,42.805,6.029,CST-1368DR,6237,8740,15152,0.121,551
2020-06-04T08:36:48,42.805,6.029,CST-1368DR,6237,8739,15151,0.121,551
2020-06-04T08:39:50,42.805,6.029,CST-1368DR,6237,8739,15150,0.121,551
2020-06-04T08:42:51,42.805,6.029,CST-1368DR,6237,8739,15152,0.121,551
2020-06-04T08:45:53,42.805,6.029,CST-1368DR,6237,8740,15152,0.121,551
2020-06-04T08:48:55,42.805,6.029,CST-1368DR,6237,8739,15152,0.121,551
2020-06-04T08:51:56,42.805,6.029,CST-1368DR,6237,8739,15151,0.121,551
2020-06-04T08:54:58,42.805,6.029,CST-1368DR,6237,8739,15151,0.121,551
2020-06-04T08:58:00,42.805,6.029,CST-1368DR,6237,8740,15152,0.121,551
2020-06-04T09:01:02,42.805,6.029,CST-1368DR,6237,8739,15151,0.121,551
2020-06-04T09:04:03,42.805,6.029,CST-1368DR,6237,8739,15151,0.121,551
2020-06-04T09:07:05,42.805,6.029,CST-1368DR,6237,8739,15151,0.121,551
2020-06-04T09:10:07,42.805,6.029,CST-1368DR,6237,8738,15150,0.121,551
2020-06-04T09:13:08,42.805,6.029,CST-1368DR,6237,8738,15149,0.121,551
2020-06-04T09:16:10,42.805,6.029,CST-1368DR,6237,8739,15151,0.121,551
2020-06-04T09:19:12,42.805,6.029,CST-1368DR,6237,8738,15149,0.121,551
2020-06-04T09:22:14,42.805,6.029,CST-1368DR,6237,8739,15152,0.121,550
2020-06-04T09:25:15,42.805,6.029,CST-1368DR,6237,8738,15150,0.121,551
2020-06-04T09:28:17,42.805,6.029,CST-1368DR,6237,8739,15151,0.121,551
2020-06-04T09:31:19,42.805,6.029,CST-1368DR,6237,8739,15151,0.121,551
2020-06-04T09:34:21,42.805,6.029,CST-1368DR,6237,8739,15150,0.121,551
2020-06-04T09:37:22,42.805,6.029,CST-1368DR,6237,8739,15150,0.121,551
2020-06-04T09:40:24,42.805,6.029,CST-1368DR,6237,8739,15151,0.121,551
2020-06-04T09:43:26,42.805,6.029,CST-1368DR,6237,8739,15152,0.121,551
2020-06-04T09:46:27,42.805,6.029,CST-1368DR,6237,8739,15151,0.121,550
2020-06-04T09:49:29,42.805,6.029,CST-1368DR,6237,8740,15153,0.120,551
2020-06-04T09:52:31,42.805,6.029,CST-1368DR,6237,8739,15152,0.121,551
2020-06-04T09:55:32,42.805,6.029,CST-1368DR,6237,8740,15152,0.121,551
2020-06-04T09:58:34,42.805,6.029,CST-1368DR,6237,8739,15152,0.121,551
2020-06-04T10:01:36,42.805,6.029,CST-1368DR,6237,8739,15151,0.121,551
2020-06-04T10:04:38,42.805,6.029,CST-1368DR,6237,8740,15152,0.121,551
2020-06-04T10:07:39,42.805,6.029,CST-1368DR,6237,8740,15153,0.120,551
2020-06-04T10:10:41,42.805,6.029,CST-1368DR,6237,8739,15151,0.121,551
2020-06-04T10:13:43,42.805,6.029,CST-1368DR,6237,8740,15152,0.121,551
2020-06-04T10:16:44,42.805,6.029,CST-1368DR,6236,8739,15153,0.120,551
2020-06-04T10:19:46,42.805,6.029,CST-1368DR,6236,8740,15155,0.120,551
2020-06-04T10:22:47,42.805,6.029,CST-1368DR,6237,8738,15149,0.121,551
2020-06-04T10:25:49,42.805,6.029,CST-1368DR,6237,8739,15151,0.121,551
2020-06-04T10:28:51,42.805,6.029,CST-1368DR,6237,8738,15149,0.121,551
2020-06-04T10:31:53,42.805,6.029,CST-1368DR,6237,8740,15153,0.120,550
2020-06-04T10:34:54,42.805,6.029,CST-1368DR,6237,8738,15149,0.121,551
2020-06-04T10:37:56,42.805,6.029,CST-1368DR,6236,8738,15151,0.121,551
2020-06-04T10:40:58,42.805,6.029,CST-1368DR,6236,8738,15152,0.121,551
2020-06-04T10:44:00,42.805,6.029,CST-1368DR,6237,8739,15151,0.121,551
2020-06-04T10:47:01,42.805,6.029,CST-1368DR,6237,8738,15150,0.121,551
2020-06-04T10:50:03,42.805,6.029,CST-1368DR,6237,8739,15152,0.121,551
2020-06-04T10:53:05,42.805,6.029,CST-1368DR,6237,8740,15152,0.121,551
2020-06-04T10:56:06,42.805,6.029,CST-1368DR,6237,8739,15150,0.121,551
2020-06-04T10:59:08,42.805,6.029,CST-1368DR,6236,8739,15153,0.120,551
2020-06-04T11:02:10,42.805,6.029,CST-1368DR,6237,8739,15151,0.121,551
2020-06-04T11:05:12,42.805,6.029,CST-1368DR,6236,8740,15156,0.120,551
2020-06-04T11:08:13,42.805,6.029,CST-1368DR,6236,8740,15156,0.120,551
2020-06-04T11:11:15,42.805,6.029,CST-1368DR,6237,8739,15151,0.121,550
2020-06-04T11:14:17,42.805,6.029,CST-1368DR,6236,8739,15153,0.120,551
2020-06-04T11:17:18,42.805,6.029,CST-1368DR,6236,8740,15154,0.120,551
2020-06-04T11:20:20,42.805,6.029,CST-1368DR,6236,8737,15149,0.121,551
2020-06-04T11:23:22,42.805,6.029,CST-1368DR,6236,8739,15153,0.120,551
2020-06-04T11:26:23,42.805,6.029,CST-1368DR,6236,8738,15152,0.121,551
2020-06-04T11:29:25,42.805,6.029,CST-1368DR,6236,8739,15153,0.120,551
2020-06-04T11:32:27,42.805,6.029,CST-1368DR,6236,8739,15153,0.120,551
2020-06-04T11:35:28,42.805,6.029,CST-1368DR,6236,8738,15151,0.121,551
2020-06-04T11:38:30,42.805,6.029,CST-1368DR,6236,8738,15152,0.121,551
2020-06-04T11:41:32,42.805,6.029,CST-1368DR,6236,8736,15147,0.122,551
2020-06-04T11:44:33,42.805,6.029,CST-1368DR,6236,8738,15152,0.121,551
2020-06-04T11:47:35,42.805,6.029,CST-1368DR,6236,8739,15153,0.120,551
2020-06-04T11:50:37,42.805,6.029,CST-1368DR,6236,8733,15143,0.123,551
2020-06-04T11:53:38,42.805,6.029,CST-1368DR,6236,8739,15153,0.120,551
2020-06-04T11:56:40,42.805,6.029,CST-1368DR,6236,8739,15153,0.120,551
2020-06-04T11:59:42,42.805,6.029,CST-1368DR,6236,8739,15153,0.120,551
2020-06-04T12:02:43,42.805,6.029,CST-1368DR,6236,8739,15153,0.120,551
2020-06-04T12:05:45,42.805,6.029,CST-1368DR,6236,8738,15152,0.121,551
2020-06-04T12:08:47,42.805,6.029,CST-1368DR,6236,8738,15152,0.121,551
2020-06-04T12:11:49,42.805,6.029,CST-1368DR,6236,8738,15152,0.121,551
2020-06-04T12:14:50,42.805,6.029,CST-1368DR,6236,8738,15151,0.121,551
2020-06-04T12:17:52,42.805,6.029,CST-1368DR,6236,8738,15151,0.121,551
2020-06-04T12:20:54,42.805,6.029,CST-1368DR,6236,8738,15151,0.121,551
2020-06-04T12:23:55,42.805,6.029,CST-1368DR,6236,8738,15152,0.121,551
2020-06-04T12:26:57,42.805,6.029,CST-1368DR,6236,8739,15153,0.120,551
2020-06-04T12:29:59,42.805,6.029,CST-1368DR,6236,8738,15152,0.121,551
2020-06-04T12:33:00,42.805,6.029,CST-1368DR,6236,8737,15150,0.121,551
2020-06-04T12:36:02,42.805,6.029,CST-1368DR,6236,8739,15153,0.120,551
2020-06-04T12:39:04,42.805,6.029,CST-1368DR,6236,8738,15152,0.121,551
2020-06-04T12:42:05,42.805,6.029,CST-1368DR,6236,8738,15152,0.121,551
2020-06-04T12:45:07,42.805,6.029,CST-1368DR,6236,8738,15151,0.121,551
2020-06-04T12:48:09,42.805,6.029,CST-1368DR,6236,8738,15151,0.121,551
2020-06-04T12:51:10,42.805,6.029,CST-1368DR,6236,8739,15153,0.120,551
2020-06-04T12:54:12,42.805,6.029,CST-1368DR,6236,8736,15147,0.122,551
2020-06-04T12:57:14,42.805,6.029,CST-1368DR,6236,8738,15151,0.121,551
2020-06-04T13:00:15,42.805,6.029,CST-1368DR,6236,8738,15152,0.121,551
2020-06-04T13:03:17,42.805,6.029,CST-1368DR,6236,8738,15152,0.121,551
2020-06-04T13:06:19,42.805,6.029,CST-1368DR,6236,8737,15150,0.121,550
2020-06-04T13:09:21,42.805,6.029,CST-1368DR,6236,8737,15150,0.121,551
2020-06-04T13:12:22,42.805,6.029,CST-1368DR,6236,8739,15153,0.120,551
2020-06-04T13:15:24,42.805,6.029,CST-1368DR,6236,8738,15151,0.121,551
2020-06-04T13:18:26,42.805,6.029,CST-1368DR,6236,8738,15151,0.121,551
2020-06-04T13:21:27,42.805,6.029,CST-1368DR,6236,8737,15149,0.121,551
2020-06-04T13:24:29,42.805,6.029,CST-1368DR,6236,8737,15150,0.121,551
2020-06-04T13:27:31,42.805,6.029,CST-1368DR,6236,8736,15148,0.122,551
2020-06-04T13:30:32,42.805,6.029,CST-1368DR,6236,8737,15149,0.121,551
2020-06-04T13:33:34,42.805,6.029,CST-1368DR,6236,8738,15152,0.121,550
2020-06-04T13:36:36,42.805,6.029,CST-1368DR,6236,8737,15150,0.121,551
2020-06-04T13:39:37,42.805,6.029,CST-1368DR,6236,8739,15153,0.120,551
2020-06-04T13:42:39,42.805,6.029,CST-1368DR,6236,8738,15151,0.121,551
2020-06-04T13:45:41,42.805,6.029,CST-1368DR,6236,8738,15152,0.121,551
2020-06-04T13:48:43,42.805,6.029,CST-1368DR,6236,8738,15151,0.121,551
2020-06-04T13:51:44,42.805,6.029,CST-1368DR,6236,8738,15152,0.121,551
2020-06-04T13:54:46,42.805,6.029,CST-1368DR,6236,8737,15150,0.121,551
2020-06-04T13:57:48,42.805,6.029,CST-1368DR,6236,8738,15151,0.121,550
2020-06-04T14:00:49,42.805,6.029,CST-1368DR,6236,8738,15152,0.121,551
2020-06-04T14:03:51,42.805,6.029,CST-1368DR,6236,8738,15151,0.121,551
2020-06-04T14:06:53,42.805,6.029,CST-1368DR,6236,8738,15152,0.121,551
2020-06-04T14:09:54,42.805,6.029,CST-1368DR,6236,8737,15150,0.121,551
2020-06-04T14:12:56,42.805,6.029,CST-1368DR,6236,8738,15152,0.121,551
2020-06-04T14:15:58,42.805,6.029,CST-1368DR,6236,8736,15149,0.121,551
2020-06-04T14:18:59,42.805,6.029,CST-1368DR,6236,8738,15152,0.121,551
2020-06-04T14:22:01,42.805,6.029,CST-1368DR,6236,8738,15151,0.121,551
2020-06-04T14:25:03,42.805,6.029,CST-1368DR,6236,8738,15151,0.121,551
2020-06-04T14:28:04,42.805,6.029,CST-1368DR,6236,8733,15143,0.123,551
2020-06-04T14:31:06,42.805,6.029,CST-1368DR,6236,8735,15146,0.122,551
2020-06-04T14:34:08,42.805,6.029,CST-1368DR,6236,8739,15153,0.120,551
2020-06-04T14:37:09,42.805,6.029,CST-1368DR,6236,8738,15152,0.121,551
2020-06-04T14:40:11,42.805,6.029,CST-1368DR,6236,8738,15152,0.121,551
2020-06-04T14:43:13,42.805,6.029,CST-1368DR,6236,8736,15149,0.121,551
2020-06-04T14:46:14,42.805,6.029,CST-1368DR,6236,8738,15151,0.121,551
2020-06-04T14:49:16,42.805,6.029,CST-1368DR,6236,8738,15152,0.121,551
2020-06-04T14:52:18,42.805,6.029,CST-1368DR,6236,8737,15149,0.121,551
2020-06-04T14:55:20,42.805,6.029,CST-1368DR,6236,8738,15151,0.121,550
2020-06-04T14:58:21,42.805,6.029,CST-1368DR,6236,8737,15150,0.121,551
2020-06-04T15:01:23,42.805,6.029,CST-1368DR,6236,8737,15150,0.121,551
2020-06-04T15:04:25,42.805,6.029,CST-1368DR,6236,8739,15153,0.120,551
2020-06-04T15:07:26,42.805,6.029,CST-1368DR,6236,8738,15151,0.121,551
2020-06-04T15:10:28,42.805,6.029,CST-1368DR,6236,8738,15152,0.121,551
2020-06-04T15:13:30,42.805,6.029,CST-1368DR,6236,8737,15150,0.121,551
2020-06-04T15:16:32,42.805,6.029,CST-1368DR,6236,8737,15150,0.121,551
2020-06-04T15:19:33,42.805,6.029,CST-1368DR,6236,8736,15149,0.121,551
2020-06-04T15:22:35,42.805,6.029,CST-1368DR,6236,8738,15151,0.121,551
2020-06-04T15:25:37,42.805,6.029,CST-1368DR,6236,8737,15150,0.121,551
2020-06-04T15:28:38,42.805,6.029,CST-1368DR,6236,8737,15150,0.121,551
2020-06-04T15:31:40,42.805,6.029,CST-1368DR,6236,8738,15152,0.121,551
2020-06-04T15:34:42,42.805,6.029,CST-1368DR,6236,8738,15151,0.121,551
2020-06-04T15:37:43,42.805,6.029,CST-1368DR,6236,8737,15150,0.121,550
2020-06-04T15:40:45,42.805,6.029,CST-1368DR,6236,8736,15149,0.121,551
2020-06-04T15:43:47,42.805,6.029,CST-1368DR,6236,8736,15148,0.122,551
2020-06-04T15:46:49,42.805,6.029,CST-1368DR,6236,8736,15149,0.121,551
2020-06-04T15:49:50,42.805,6.029,CST-1368DR,6236,8736,15149,0.121,551
2020-06-04T15:52:52,42.805,6.029,CST-1368DR,6236,8737,15150,0.121,551
2020-06-04T15:55:54,42.805,6.029,CST-1368DR,6236,8737,15150,0.121,551
2020-06-04T15:58:55,42.805,6.029,CST-1368DR,6236,8736,15149,0.121,551
2020-06-04T16:01:57,42.805,6.029,CST-1368DR,6236,8736,15149,0.121,551
2020-06-04T16:04:59,42.805,6.029,CST-1368DR,6236,8737,15150,0.121,551
2020-06-04T16:08:00,42.805,6.029,CST-1368DR,6236,8737,15149,0.121,551
2020-06-04T16:11:02,42.805,6.029,CST-1368DR,6236,8738,15152,0.121,551
2020-06-04T16:14:04,42.805,6.029,CST-1368DR,6236,8736,15147,0.122,551
2020-06-04T16:17:06,42.805,6.029,CST-1368DR,6236,8736,15148,0.122,551
2020-06-04T16:20:07,42.805,6.029,CST-1368DR,6236,8737,15150,0.121,551
2020-06-04T16:23:09,42.805,6.029,CST-1368DR,6236,8737,15150,0.121,551
2020-06-04T16:26:11,42.805,6.029,CST-1368DR,6236,8736,15149,0.121,551
2020-06-04T16:29:12,42.805,6.029,CST-1368DR,6236,8736,15147,0.122,551
2020-06-04T16:32:14,42.805,6.029,CST-1368DR,6236,8736,15149,0.121,551
2020-06-04T16:35:16,42.805,6.029,CST-1368DR,6236,8736,15147,0.122,551
2020-06-04T16:38:17,42.805,6.029,CST-1368DR,6236,8738,15151,0.121,550
2020-06-04T16:41:19,42.805,6.029,CST-1368DR,6236,8739,15153,0.120,551
2020-06-04T16:44:21,42.805,6.029,CST-1368DR,6236,8738,15152,0.121,551
2020-06-04T16:47:23,42.805,6.029,CST-1368DR,6236,8737,15150,0.121,551
2020-06-04T16:50:25,42.805,6.029,CST-1368DR,6235,8737,15152,0.121,551
2020-06-04T16:53:26,42.805,6.029,CST-1368DR,6235,8737,15152,0.121,551